Wind_Speed
33 32 31 30 28 27 26 25 25 25 24 24 23 23 22 21 19 18 18 17 18 18 17 16 16 16 16 16 16 16 16 15 14 13 14 14 15 16 16 16 17 19 19
30 30 29 29 29 28 26 25 24 24 23 24 24 24 23 22 22 21 20 20 20 20 20 20 20 20 20 20 20 20 20 19 18 17 17 18 18 18 19 19 20 20 21
29 30 30 29 29 28 26 25 23 22 22 23 23 24 24 23 23 22 22 22 23 23 23 23 23 23 23 24 24 24 23 23 22 22 21 21 21 21 22 22 22 22 23
31 32 31 30 29 28 26 24 22 20 19 20 21 21 22 22 22 22 22 22 22 23 23 24 24 25 25 26 26 27 27 26 27 27 27 27 26 26 25 26 26 26 26
33 33 32 31 29 27 25 24 22 21 20 19 19 20 20 20 20 21 21 21 22 23 23 23 22 22 22 22 23 24 25 26 26 27 29 30 30 31 32 30 30 28 30
39 36 34 31 29 27 25 24 23 22 21 20 19 20 20 21 21 21 21 21 20 20 19 18 16 16 15 15 16 16 17 18 18 19 20 21 24 25 28 30 31 31 31
41 39 35 32 29 28 26 25 23 22 21 21 20 19 19 19 19 18 17 16 15 15 15 15 15 15 15 16 17 18 19 20 22 23 25 27 28 29 32 33 34 33 30
38 38 36 33 30 28 26 25 24 22 22 21 20 19 18 18 17 16 16 16 16 16 16 17 18 19 20 21 22 23 25 26 28 29 31 33 35 37 38 40 40 40 41
38 37 36 33 30 28 26 25 23 22 21 20 19 19 18 17 17 17 17 17 18 19 20 21 22 23 24 26 27 29 30 32 33 35 36 37 38 40 41 43 44 45 46
35 36 35 32 30 28 27 25 24 22 21 20 20 19 19 19 19 19 19 20 21 22 23 25 26 28 29 31 32 34 35 36 37 37 38 39 41 42 43 44 46 48 50
30 32 33 32 29 28 26 25 24 22 22 21 21 20 20 20 20 21 22 23 24 25 27 29 31 33 34 36 37 38 38 38 39 40 41 42 43 45 46 47 48 50 52
30 30 30 29 28 27 26 25 24 23 22 22 21 21 21 22 22 23 25 26 27 29 31 33 35 36 38 39 40 41 41 41 42 42 43 44 45 47 48 49 50 51 53
30 30 29 28 27 26 26 25 25 24 24 23 23 23 23 24 25 26 28 29 31 33 34 35 37 38 39 40 41 42 42 42 43 44 44 45 46 47 48 49 51 52 54
27 28 28 28 27 27 26 26 25 25 24 24 24 24 25 26 27 29 31 32 34 35 36 37 38 39 40 41 42 43 43 43 44 45 46 46 47 48 48 49 50 52 53
26 27 27 28 29 29 28 26 25 24 23 24 25 26 28 29 30 32 33 34 35 36 36 37 38 38 40 41 43 44 45 45 45 46 47 48 48 49 49 50 50 52 53
31 31 32 33 31 29 26 25 25 23 22 24 25 27 28 30 31 32 34 35 35 36 37 39 39 40 41 42 44 45 46 45 45 46 47 48 48 48 49 49 51 52 53
35 36 32 26 24 24 23 20 20 21 24 25 26 27 29 30 31 33 35 36 37 38 39 40 41 41 42 43 44 45 47 47 46 47 47 48 48 48 48 47 50 51 51
29 25 25 25 22 18 18 20 20 22 25 25 26 28 30 32 34 36 37 38 39 40 41 42 43 43 44 45 46 48 49 49 48 48 48 49 48 47 48 46 48 49 49
26 25 24 20 17 16 18 19 20 23 25 26 28 30 32 34 36 37 38 40 42 43 44 45 46 47 46 47 48 49 50 51 50 49 49 49 49 46 46 47 47 47 48
23 21 16 14 13 14 17 20 22 26 27 28 30 32 34 36 38 40 41 43 46 47 48 48 49 50 50 49 50 50 52 52 50 49 48 47 46 45 43 44 44 45 44
17 13 13 13 13 15 18 22 26 28 29 30 32 35 38 40 42 44 45 47 49 50 51 52 52 52 51 50 49 49 51 51 50 49 46 45 43 42 42 41 42 41 41
13 12 12 12 14 17 19 23 27 30 32 34 36 38 40 43 45 48 48 50 52 52 52 53 53 51 50 49 48 48 48 48 49 47 46 44 42 41 40 39 37 26 31
10 10 12 14 16 18 21 25 29 32 34 36 38 41 43 46 48 50 51 52 51 51 52 51 50 49 48 47 46 45 46 46 45 45 44 43 41 40 38 37 31 38 40
8 10 12 16 18 21 24 26 29 33 36 39 42 44 46 47 48 49 50 51 51 51 51 51 50 50 49 47 45 45 44 43 43 42 41 40 39 38 38 38 38 39 41
7 9 12 16 18 21 26 29 32 35 38 41 42 44 45 46 47 48 49 50 50 51 51 51 50 50 49 46 45 43 43 41 39 38 36 35 33 34 37 40 42 43 44
7 9 12 16 20 24 28 32 35 37 39 41 42 44 45 46 47 47 46 43 45 44 44 43 44 44 45 44 41 40 38 35 31 30 34 36 40 41 37 40 44 46 45
Wind_Direction
231 236 240 243 245 248 250 256 259 255 249 245 242 244 245 244 240 233 236 236 237 238 239 241 244 246 248 249 251 254 252 249 249 250 250 252 256 258 257 254 253 253 253
239 243 244 245 248 251 255 255 254 252 245 241 237 238 240 242 245 245 241 242 242 243 244 245 246 248 250 252 253 254 258 259 256 255 255 258 255 256 256 256 255 256 257
242 246 248 249 250 253 254 253 250 247 241 237 237 237 239 242 245 247 248 248 247 249 250 252 253 254 256 257 259 261 262 264 263 263 265 264 263 264 262 262 261 259 257
248 249 250 251 251 251 250 249 245 243 238 235 236 238 239 243 245 248 250 252 254 256 258 259 260 261 262 264 265 266 268 268 269 271 270 268 266 263 261 263 263 263 263
248 250 249 249 250 249 246 243 240 239 237 234 235 238 242 245 250 252 256 260 263 265 268 270 271 270 269 268 268 268 269 271 271 269 270 272 271 271 269 264 261 260 265
247 247 246 246 245 243 241 238 237 238 239 239 239 242 246 249 254 258 261 264 266 267 267 266 264 264 264 264 266 268 271 274 276 277 277 278 279 278 277 275 272 266 261
243 241 241 240 239 238 237 235 234 235 237 239 241 241 244 247 251 254 256 256 256 256 257 259 260 262 265 268 270 272 274 276 278 279 280 281 281 280 279 280 278 275 269
240 238 236 235 234 234 234 234 234 233 234 235 236 237 239 240 243 245 247 250 253 256 258 262 265 268 270 272 274 276 277 279 281 282 283 282 282 283 283 282 281 279 278
232 230 230 231 231 230 231 231 231 232 232 232 232 233 233 235 237 241 246 251 257 262 266 269 272 275 276 278 279 281 282 283 283 283 283 283 282 282 282 282 283 282 280
228 226 227 228 228 227 228 229 230 230 229 228 227 228 231 235 240 245 251 256 261 266 270 273 275 277 279 280 282 282 283 284 284 283 283 282 282 282 282 281 282 282 282
224 224 224 224 224 225 226 228 228 226 225 225 228 231 236 241 247 252 257 262 266 269 272 275 277 279 280 281 281 282 282 282 282 282 282 282 282 282 281 281 281 281 281
224 221 220 221 222 224 224 223 223 224 226 229 233 237 242 248 253 259 264 268 271 275 277 279 280 281 282 282 282 282 282 282 282 281 281 280 280 281 281 281 281 281 281
225 222 220 220 221 220 220 221 222 225 228 233 238 244 250 255 259 264 268 272 275 277 279 280 281 282 282 283 282 282 282 283 283 282 282 281 281 280 280 280 280 280 280
222 219 218 216 215 217 218 220 222 226 230 237 244 250 257 263 268 272 275 278 279 280 281 282 283 283 284 284 284 284 284 285 285 285 284 284 283 282 281 281 280 280 279
220 214 213 214 212 212 214 218 224 229 234 242 251 258 264 269 273 277 280 281 283 284 285 286 286 286 285 285 285 285 285 285 286 285 285 285 284 284 283 283 282 281 281
209 209 210 210 212 213 213 218 228 238 247 252 258 265 271 275 278 281 283 285 286 288 288 287 286 286 286 285 285 285 284 284 284 283 283 283 283 283 283 283 283 283 283
209 206 207 211 213 215 219 226 235 244 254 261 268 273 277 281 284 286 287 287 287 287 287 287 287 286 286 286 286 286 286 286 286 285 285 284 284 284 284 284 283 283 283
205 203 204 205 206 211 224 235 246 257 264 271 277 281 284 286 286 287 287 288 289 288 287 287 288 288 288 288 287 287 287 287 287 286 286 285 285 286 286 285 284 284 284
197 198 200 200 206 220 237 251 260 266 272 278 282 284 285 286 288 289 289 289 289 289 289 289 288 288 288 287 287 287 286 286 286 286 286 286 285 285 285 284 283 283 282
188 191 193 203 218 238 254 264 269 273 279 283 285 287 288 289 289 290 291 291 291 290 289 289 289 288 287 286 286 287 286 286 286 285 285 284 284 284 282 281 282 281 282
178 186 208 225 239 251 262 270 276 281 286 289 290 291 292 293 293 291 291 290 289 289 289 288 288 288 288 288 287 285 285 285 285 284 283 282 281 280 279 279 279 279 279
185 209 229 245 257 267 275 281 285 289 291 293 294 294 293 292 292 292 291 290 290 290 289 288 288 288 287 286 285 284 283 283 283 284 284 283 281 279 278 278 279 276 271
201 228 253 266 273 279 283 288 291 294 296 296 295 294 294 293 293 293 293 292 291 290 290 289 289 289 286 285 283 282 281 281 281 282 282 281 280 279 277 274 263 267 269
222 248 267 279 288 291 293 293 294 297 297 296 296 295 294 294 294 293 292 291 291 290 289 288 287 285 284 283 282 280 279 280 280 279 278 278 277 276 274 271 270 268 272
248 268 280 288 293 297 298 300 301 299 298 298 297 297 297 297 295 294 293 293 292 291 290 288 286 284 283 282 281 281 280 278 277 280 281 280 275 271 272 273 274 273 275
278 289 296 303 306 305 305 306 305 305 305 305 304 302 300 299 298 298 297 296 296 294 292 291 289 288 286 285 282 280 276 275 273 271 277 278 276 275 278 277 277 276 278
Height
3122 3124 3125 3127 3129 3131 3132 3132 3133 3134 3135 3136 3138 3140 3141 3143 3144 3145 3146 3147 3148 3149 3149 3150 3150 3151 3151 3152 3153 3153 3155 3156 3157 3158 3158 3158 3158 3158 3159 3159 3159 3160 3161
3117 3119 3121 3123 3124 3126 3127 3127 3128 3129 3129 3130 3132 3135 3136 3138 3139 3140 3142 3143 3144 3145 3146 3146 3147 3148 3148 3149 3149 3150 3150 3152 3153 3154 3154 3154 3156 3155 3156 3156 3156 3156 3157
3112 3114 3116 3117 3119 3120 3121 3123 3123 3123 3124 3125 3127 3129 3131 3133 3134 3136 3137 3138 3139 3140 3141 3142 3142 3143 3144 3144 3145 3145 3146 3147 3148 3149 3150 3150 3150 3150 3150 3151 3151 3151 3152
3107 3109 3110 3112 3113 3115 3116 3118 3119 3119 3120 3121 3122 3124 3126 3128 3129 3131 3131 3132 3133 3134 3135 3136 3137 3137 3137 3138 3138 3139 3140 3141 3142 3142 3143 3144 3145 3145 3146 3146 3146 3146 3146
3101 3103 3104 3105 3107 3109 3110 3112 3114 3115 3116 3116 3118 3119 3121 3122 3124 3125 3126 3127 3128 3128 3129 3129 3129 3130 3131 3131 3132 3132 3133 3133 3135 3135 3135 3135 3136 3136 3137 3139 3140 3141 3140
3093 3095 3097 3099 3100 3102 3104 3106 3108 3110 3111 3112 3114 3115 3116 3118 3119 3120 3121 3122 3122 3123 3123 3124 3124 3125 3125 3126 3126 3127 3127 3127 3128 3128 3128 3128 3128 3128 3127 3128 3130 3132 3134
3084 3087 3089 3092 3094 3096 3098 3100 3103 3105 3106 3108 3109 3110 3111 3112 3113 3114 3115 3116 3117 3118 3119 3119 3120 3121 3121 3122 3122 3122 3122 3123 3123 3122 3122 3122 3121 3122 3121 3120 3120 3121 3125
3075 3079 3082 3085 3087 3090 3092 3095 3097 3099 3101 3102 3104 3105 3107 3108 3109 3110 3111 3112 3113 3113 3114 3114 3115 3116 3116 3117 3117 3117 3117 3117 3116 3115 3115 3114 3113 3112 3111 3110 3110 3111 3111
3066 3070 3074 3078 3081 3084 3087 3089 3091 3093 3096 3098 3099 3101 3102 3103 3105 3106 3107 3108 3108 3108 3109 3109 3109 3109 3109 3109 3109 3109 3109 3108 3108 3107 3106 3105 3104 3103 3101 3100 3098 3097 3097
3058 3063 3068 3072 3075 3078 3081 3084 3086 3088 3091 3093 3095 3097 3098 3099 3101 3102 3102 3103 3103 3103 3103 3103 3103 3103 3102 3102 3102 3101 3100 3099 3098 3098 3097 3095 3094 3093 3091 3090 3088 3086 3084
3052 3057 3061 3066 3070 3073 3076 3079 3081 3084 3086 3089 3091 3093 3094 3095 3096 3097 3097 3098 3098 3098 3097 3097 3096 3096 3095 3094 3093 3092 3091 3090 3089 3088 3087 3085 3083 3082 3080 3079 3077 3075 3072
3048 3052 3056 3061 3065 3068 3071 3074 3077 3079 3082 3084 3086 3088 3089 3090 3091 3091 3091 3091 3091 3091 3090 3089 3088 3087 3086 3085 3084 3082 3081 3080 3079 3077 3076 3074 3072 3070 3068 3067 3065 3063 3060
3043 3047 3052 3056 3060 3063 3067 3070 3072 3075 3077 3079 3081 3082 3083 3084 3084 3085 3085 3084 3084 3083 3082 3081 3080 3078 3076 3075 3073 3071 3070 3069 3067 3065 3064 3062 3060 3059 3057 3055 3052 3050 3047
3040 3043 3047 3051 3054 3058 3062 3065 3068 3070 3073 3074 3076 3077 3077 3078 3077 3077 3077 3076 3075 3074 3073 3072 3070 3068 3066 3064 3062 3060 3058 3057 3055 3053 3051 3049 3047 3046 3044 3042 3039 3037 3034
3035 3039 3043 3047 3049 3053 3056 3060 3063 3065 3067 3069 3070 3071 3071 3071 3070 3069 3068 3067 3065 3064 3062 3060 3059 3057 3055 3052 3050 3047 3046 3044 3042 3039 3037 3035 3033 3031 3029 3027 3025 3022 3019
3029 3032 3036 3039 3043 3048 3051 3055 3058 3060 3062 3064 3064 3064 3064 3063 3062 3060 3058 3057 3055 3053 3051 3049 3047 3045 3043 3040 3038 3035 3033 3032 3030 3028 3025 3023 3020 3018 3016 3013 3010 3008 3005
3023 3025 3031 3037 3041 3045 3049 3051 3054 3056 3056 3057 3057 3057 3056 3054 3053 3051 3048 3047 3045 3043 3040 3038 3036 3034 3031 3028 3026 3022 3019 3018 3016 3013 3011 3009 3007 3004 3003 3000 2996 2993 2992
3021 3026 3030 3034 3038 3041 3045 3048 3049 3050 3050 3050 3050 3049 3047 3045 3043 3041 3039 3036 3034 3032 3029 3026 3023 3021 3019 3015 3012 3009 3006 3003 3002 2999 2997 2994 2993 2990 2987 2986 2982 2980 2978
3018 3023 3028 3031 3036 3039 3041 3043 3044 3043 3043 3043 3042 3041 3039 3037 3034 3032 3029 3026 3023 3020 3016 3014 3011 3008 3007 3003 2999 2996 2993 2990 2988 2986 2983 2980 2978 2978 2974 2971 2968 2966 2964
3017 3022 3025 3030 3034 3036 3037 3037 3038 3036 3037 3036 3034 3032 3029 3027 3024 3021 3017 3013 3009 3007 3003 3001 2998 2995 2992 2990 2985 2982 2977 2975 2973 2971 2969 2968 2965 2963 2962 2958 2956 2952 2952
3015 3019 3024 3028 3030 3032 3032 3032 3030 3029 3029 3027 3025 3022 3019 3015 3012 3008 3005 3001 2998 2993 2990 2987 2984 2980 2977 2975 2971 2968 2963 2960 2958 2956 2955 2954 2952 2950 2948 2946 2943 2941 2938
3015 3019 3022 3024 3026 3027 3026 3025 3023 3022 3020 3018 3015 3012 3008 3004 3000 2995 2992 2987 2983 2979 2975 2971 2968 2965 2962 2959 2956 2952 2950 2947 2943 2942 2940 2939 2938 2937 2935 2933 2931 2930 2926
3014 3017 3019 3020 3021 3021 3020 3018 3015 3013 3010 3007 3004 3000 2996 2992 2986 2981 2976 2972 2968 2963 2959 2956 2952 2950 2947 2944 2942 2939 2935 2933 2931 2929 2927 2926 2925 2924 2922 2921 2920 2918 2916
3013 3015 3015 3015 3015 3014 3012 3011 3008 3005 3002 2998 2993 2989 2984 2979 2974 2968 2963 2958 2953 2949 2945 2941 2939 2935 2932 2930 2928 2925 2923 2921 2918 2917 2915 2914 2912 2911 2910 2909 2908 2906 2904
3011 3011 3011 3011 3010 3008 3005 3002 3000 2996 2991 2986 2981 2976 2970 2965 2959 2954 2949 2943 2939 2934 2929 2926 2923 2919 2917 2916 2913 2911 2910 2908 2907 2904 2903 2902 2901 2899 2898 2896 2895 2893 2892
3007 3007 3007 3005 3003 3000 2997 2992 2987 2982 2976 2972 2966 2961 2954 2949 2943 2938 2934 2930 2923 2919 2916 2911 2907 2904 2901 2900 2899 2898 2897 2896 2897 2895 2894 2891 2889 2887 2887 2884 2882 2881 2880